Weather History for Weslaco, TX

Change the Weather History Date:

Friday, December 21, 2012

  Actual Average (KMFE) Record (KMFE)
Temperature  
Mean Temperature 52 °F 61 °F  
Max Temperature 68 °F 71 °F 90 °F (1948)
Min Temperature 37 °F 51 °F 26 °F (1910)
Degree Days  
Heating Degree Days 12 6  
Month to date heating degree days 109  
Since 1 July heating degree days 169  
Cooling Degree Days 0 2  
Month to date cooling degree days 62  
Year to date cooling degree days 4431  
Growing Degree Days 2 (Base 50)    
Moisture  
Dew Point 28 °F    
Average Humidity 39    
Maximum Humidity 70    
Minimum Humidity 15    
Precipitation  
Precipitation 0.00 in 0.04 in 0.28 in (1991)
Month to date precipitation 0.78  
Year to date precipitation 21.79  
Sea Level Pressure  
Sea Level Pressure 30.44 in    
Wind  
Wind Speed 4 mph (NE)    
Max Wind Speed 8 mph    
Max Gust Speed 9 mph    
Visibility 10 miles    
Events      
T = Trace of Precipitation, MM = Missing Value Source: NWS Daily Summary

Daily Weather History Graph

Daily Weather History Graph

Search for Another Location

Airport:

Trip Planner

Search our weather history database for the weather conditions in past years. The results will help you decide how hot, cold, wet, or windy it might be!

Date:

Astronomy

Dec. 21, 2012 Rise Set
Actual Time 7:15 AM CST 5:45 PM CST
Civil Twilight 6:49 AM CST 6:10 PM CST
Nautical Twilight 6:21 AM CST 6:39 PM CST
Astronomical Twilight 5:52 AM CST 7:07 PM CST
Moon 1:12 PM CST (12/21) 1:26 AM CST (12/21)
Length of Visible Light 11h 20m
Length of Day
10h 30m
Waxing Gibbous, 65% of the Moon is Illuminated
Dec 21
Waxing Gibbous
Dec 28
Full
Jan 4
Last Quarter
Jan 11
New
Jan 18
First Quarter

Hourly Weather History & Observations

Time (CST) Temp. Windchill Dew Point Humidity Pressure Visibility Wind Dir Wind Speed Gust Speed Precip Events Conditions
12:15 AM 45.5 °F 43.2 °F 17.4 °F 33% 30.49 in 10.0 mi NW 4.6 mph - N/A   Clear
12:35 AM 44.6 °F 41.4 °F 18.1 °F 35% 30.49 in 10.0 mi NW 5.8 mph - N/A   Clear
12:55 AM 44.8 °F 41.6 °F 18.3 °F 35% 30.49 in 10.0 mi NW 5.8 mph - N/A   Clear
1:15 AM 44.4 °F 42.0 °F 18.5 °F 35% 30.49 in 10.0 mi NW 4.6 mph - N/A   Clear
1:35 AM 43.7 °F 41.1 °F 19.6 °F 38% 30.49 in 10.0 mi NW 4.6 mph - N/A   Clear
1:55 AM 44.6 °F 42.2 °F 18.5 °F 35% 30.48 in 10.0 mi NW 4.6 mph - N/A   Clear
2:15 AM 43.9 °F 41.3 °F 19.0 °F 37% 30.49 in 10.0 mi NW 4.6 mph - N/A   Clear
2:35 AM 43.7 °F 42.1 °F 18.0 °F 36% 30.48 in 10.0 mi NW 3.5 mph - N/A   Clear
2:55 AM 43.0 °F 40.3 °F 19.8 °F 40% 30.49 in 10.0 mi WNW 4.6 mph - N/A   Clear
3:15 AM 42.6 °F 39.9 °F 19.4 °F 39% 30.49 in 10.0 mi NW 4.6 mph - N/A   Clear
3:35 AM 42.4 °F - 17.8 °F 37% 30.49 in 10.0 mi Calm Calm - N/A   Clear
3:55 AM 41.7 °F 38.8 °F 18.1 °F 39% 30.49 in 10.0 mi NNW 4.6 mph - N/A   Clear
4:15 AM 42.3 °F 40.5 °F 17.6 °F 37% 30.48 in 10.0 mi NNW 3.5 mph - N/A   Clear
4:35 AM 41.9 °F - 17.4 °F 37% 30.48 in 10.0 mi Calm Calm - N/A   Clear
4:55 AM 40.6 °F 38.6 °F 18.3 °F 41% 30.49 in 10.0 mi NNW 3.5 mph - N/A   Clear
5:15 AM 39.9 °F 36.7 °F 17.2 °F 40% 30.49 in 10.0 mi NNW 4.6 mph - N/A   Clear
5:35 AM 38.5 °F 36.1 °F 18.0 °F 44% 30.50 in 10.0 mi NNW 3.5 mph - N/A   Clear
5:55 AM 38.3 °F - 17.2 °F 43% 30.50 in 10.0 mi Calm Calm - N/A   Clear
6:15 AM 39.2 °F 37.0 °F 17.1 °F 41% 30.50 in 10.0 mi NNW 3.5 mph - N/A   Clear
6:35 AM 38.7 °F 36.3 °F 16.9 °F 41% 30.50 in 10.0 mi NNW 3.5 mph - N/A   Clear
6:55 AM 38.3 °F 35.9 °F 17.4 °F 43% 30.51 in 10.0 mi NW 3.5 mph - N/A   Clear
7:15 AM 37.6 °F 35.1 °F 17.6 °F 44% 30.52 in 10.0 mi NW 3.5 mph - N/A   Clear
7:35 AM 38.3 °F 35.9 °F 16.2 °F 41% 30.52 in 10.0 mi NNW 3.5 mph - N/A   Clear
7:55 AM 39.2 °F - 19.4 °F 45% 30.52 in 10.0 mi Calm Calm - N/A   Clear
8:15 AM 41.4 °F 39.4 °F 19.0 °F 41% 30.53 in 10.0 mi NW 3.5 mph - N/A   Clear
8:35 AM 44.4 °F 42.0 °F 16.7 °F 33% 30.54 in 10.0 mi NNW 4.6 mph - N/A   Clear
8:55 AM 47.1 °F - 16.7 °F 30% 30.54 in 10.0 mi Calm Calm - N/A   Clear
9:15 AM 50.9 °F - 15.8 °F 25% 30.54 in 10.0 mi Calm Calm - N/A   Clear
9:35 AM 53.8 °F - 14.2 °F 21% 30.54 in 10.0 mi North 4.6 mph - N/A   Clear
9:55 AM 55.9 °F - 9.5 °F 16% 30.54 in 10.0 mi NNE 5.8 mph - N/A   Clear
10:15 AM 59.0 °F - 11.1 °F 15% 30.54 in 10.0 mi NE 5.8 mph - N/A   Clear
10:35 AM 60.8 °F - 12.0 °F 15% 30.53 in 10.0 mi NE 6.9 mph - N/A   Clear
10:55 AM 62.2 °F - 18.5 °F 18% 30.52 in 10.0 mi NE 5.8 mph 9.2 mph N/A   Clear
11:15 AM 63.5 °F - 22.8 °F 21% 30.52 in 10.0 mi ENE 4.6 mph - N/A   Clear
11:35 AM 63.9 °F - 28.0 °F 26% 30.50 in 10.0 mi East 5.8 mph - N/A   Clear
11:55 AM 65.7 °F - 30.6 °F 27% 30.49 in 10.0 mi East 5.8 mph - N/A   Clear
12:15 PM 65.8 °F - 31.3 °F 28% 30.48 in 10.0 mi East 5.8 mph - N/A   Clear
12:35 PM 66.4 °F - 32.4 °F 28% 30.46 in 10.0 mi East 5.8 mph - N/A   Clear
12:55 PM 66.7 °F - 32.2 °F 28% 30.45 in 10.0 mi ESE 6.9 mph - N/A   Clear
1:15 PM 67.6 °F - 32.2 °F 27% 30.44 in 10.0 mi South 3.5 mph - N/A   Clear
1:35 PM 68.5 °F - 32.0 °F 26% 30.42 in 10.0 mi SW 3.5 mph - N/A   Clear
1:55 PM 68.5 °F - 33.1 °F 27% 30.41 in 10.0 mi East 3.5 mph - N/A   Clear
2:15 PM 67.5 °F - 33.6 °F 29% 30.40 in 10.0 mi ESE 6.9 mph - N/A   Clear
2:35 PM 68.4 °F - 33.6 °F 28% 30.39 in 10.0 mi East 5.8 mph - N/A   Clear
2:55 PM 68.0 °F - 32.9 °F 27% 30.39 in 10.0 mi ENE 8.1 mph - N/A   Clear
3:15 PM 68.0 °F - 32.4 °F 27% 30.37 in 10.0 mi East 5.8 mph - N/A   Clear
3:35 PM 66.6 °F - 32.0 °F 28% 30.37 in 10.0 mi East 5.8 mph - N/A   Clear
3:55 PM 66.4 °F - 31.8 °F 28% 30.36 in 10.0 mi ESE 6.9 mph - N/A   Clear
4:15 PM 66.9 °F - 31.6 °F 27% 30.36 in 10.0 mi ESE 6.9 mph - N/A   Clear
4:35 PM 66.2 °F - 31.3 °F 27% 30.36 in 10.0 mi East 6.9 mph - N/A   Clear
4:55 PM 65.8 °F - 31.1 °F 27% 30.36 in 10.0 mi ESE 5.8 mph - N/A   Clear
5:15 PM 64.8 °F - 32.2 °F 30% 30.36 in 10.0 mi ESE 6.9 mph - N/A   Clear
5:35 PM 63.3 °F - 37.8 °F 39% 30.36 in 10.0 mi East 4.6 mph - N/A   Clear
5:55 PM 61.9 °F - 38.8 °F 43% 30.36 in 10.0 mi East 6.9 mph - N/A   Clear
6:15 PM 60.8 °F - 39.6 °F 46% 30.37 in 10.0 mi East 6.9 mph - N/A   Clear
6:35 PM 59.9 °F - 40.3 °F 48% 30.37 in 10.0 mi East 6.9 mph - N/A   Clear
6:55 PM 59.2 °F - 40.5 °F 50% 30.37 in 10.0 mi East 5.8 mph - N/A   Clear
7:15 PM 58.3 °F - 41.0 °F 53% 30.37 in 10.0 mi East 6.9 mph - N/A   Clear
7:35 PM 58.1 °F - 41.5 °F 54% 30.37 in 10.0 mi East 6.9 mph - N/A   Clear
7:55 PM 57.2 °F - 41.5 °F 56% 30.38 in 10.0 mi East 6.9 mph - N/A   Clear
8:15 PM 56.3 °F - 41.5 °F 58% 30.37 in 10.0 mi East 5.8 mph - N/A   Clear
8:35 PM 55.9 °F - 41.4 °F 58% 30.37 in 10.0 mi East 4.6 mph - N/A   Clear
8:55 PM 55.4 °F - 41.9 °F 60% 30.38 in 10.0 mi ENE 3.5 mph - N/A   Clear
9:15 PM 55.0 °F - 41.9 °F 61% 30.37 in 10.0 mi East 3.5 mph - N/A   Clear
9:35 PM 54.5 °F - 41.9 °F 62% 30.37 in 10.0 mi ENE 4.6 mph - N/A   Clear
9:55 PM 53.1 °F - 41.7 °F 65% 30.37 in 10.0 mi East 3.5 mph - N/A   Clear
10:15 PM 53.6 °F - 41.9 °F 65% 30.36 in 10.0 mi East 4.6 mph - N/A   Clear
10:35 PM 53.2 °F - 41.9 °F 65% 30.36 in 10.0 mi East 4.6 mph - N/A   Clear
10:55 PM 52.0 °F - 41.5 °F 68% 30.35 in 10.0 mi Calm Calm - N/A   Clear
11:15 PM 52.0 °F - 41.5 °F 68% 30.34 in 10.0 mi Calm Calm - N/A   Clear
11:35 PM 51.8 °F - 41.7 °F 68% 30.34 in 10.0 mi Calm Calm - N/A   Clear
11:55 PM 51.4 °F - 41.9 °F 70% 30.33 in 10.0 mi East 3.5 mph - N/A   Clear